| time (UTC) | temp F | wind direction | speed knots | gust knots | rain 1hr in | rain 24hr in | rain mn in | humidity % | barometer mb |
| 20260506051348 | 64 | 287 | 3.5 | 4.3 | 0.00 | 0.28 | 0.28 | 51 | 1013.3 |
| 20260506050845 | 64 | 276 | 4.3 | 5.2 | 0.00 | 0.28 | 0.28 | 50 | 1013.3 |
| 20260506050343 | 64 | 280 | 2.6 | 2.6 | 0.00 | 0.28 | 0.28 | 50 | 1013.1 |
| 20260506044833 | 64 | 270 | 2.6 | 2.6 | 0.00 | 0.28 | 0.28 | 50 | 1012.8 |
| 20260506044331 | 64 | 267 | 6.1 | 7.0 | 0.00 | 0.28 | 0.28 | 50 | 1012.8 |
| 20260506043828 | 64 | 330 | 2.6 | 2.6 | 0.00 | 0.28 | 0.28 | 50 | 1013.0 |
| 20260506043325 | 65 | 252 | 2.6 | 2.6 | 0.00 | 0.28 | 0.28 | 50 | 1012.8 |
| 20260506042823 | 65 | 301 | 5.2 | 7.0 | 0.00 | 0.28 | 0.28 | 49 | 1012.7 |
| 20260506042322 | 65 | 279 | 5.2 | 6.1 | 0.00 | 0.28 | 0.28 | 49 | 1012.5 |
| 20260506041821 | 65 | 246 | 5.2 | 6.1 | 0.00 | 0.28 | 0.28 | 49 | 1012.4 |
| 20260506041317 | 65 | 269 | 4.3 | 6.1 | 0.00 | 0.28 | 0.28 | 48 | 1012.4 |
| 20260506040814 | 66 | 239 | 5.2 | 6.1 | 0.00 | 0.28 | 0.28 | 46 | 1012.2 |
| 20260506040312 | 66 | 285 | 4.3 | 5.2 | 0.00 | 0.28 | 0.28 | 45 | 1012.1 |
| 20260506035808 | 66 | 263 | 7.8 | 8.7 | 0.00 | 0.28 | 0.28 | 43 | 1012.2 |
| 20260506035306 | 66 | 249 | 4.3 | 5.2 | 0.00 | 0.28 | 0.28 | 40 | 1012.3 |
| 20260506034803 | 66 | 258 | 5.2 | 6.1 | 0.00 | 0.28 | 0.28 | 39 | 1012.1 |
| 20260506034259 | 67 | 259 | 5.2 | 6.1 | 0.00 | 0.28 | 0.28 | 38 | 1012.0 |
| 20260506033756 | 66 | 280 | 5.2 | 6.1 | 0.00 | 0.28 | 0.28 | 38 | 1011.8 |
| 20260506033253 | 67 | 272 | 4.3 | 5.2 | 0.00 | 0.28 | 0.28 | 37 | 1011.8 |
| 20260506032750 | 67 | 262 | 5.2 | 6.1 | 0.00 | 0.28 | 0.28 | 37 | 1011.8 |
| 20260506032247 | 67 | 289 | 5.2 | 7.0 | 0.00 | 0.28 | 0.28 | 36 | 1011.8 |
| 20260506031744 | 67 | 285 | 4.3 | 5.2 | 0.00 | 0.28 | 0.28 | 36 | 1011.7 |
| 20260506031241 | 67 | 270 | 5.2 | 6.1 | 0.00 | 0.28 | 0.28 | 36 | 1011.5 |
| 20260506030739 | 68 | 287 | 4.3 | 5.2 | 0.00 | 0.28 | 0.28 | 36 | 1011.6 |
| 20260506030237 | 68 | 314 | 4.3 | 5.2 | 0.00 | 0.28 | 0.28 | 35 | 1011.5 |
| 20260506025733 | 68 | 270 | 7.0 | 8.7 | 0.00 | 0.28 | 0.28 | 36 | 1011.5 |
| 20260506025230 | 68 | 287 | 5.2 | 6.1 | 0.00 | 0.28 | 0.28 | 36 | 1011.1 |
| 20260506024727 | 68 | 284 | 4.3 | 6.1 | 0.00 | 0.28 | 0.28 | 35 | 1011.1 |
| 20260506024223 | 68 | 275 | 4.3 | 6.1 | 0.00 | 0.28 | 0.28 | 37 | 1011.1 |
| 20260506023719 | 68 | 280 | 6.1 | 7.0 | 0.00 | 0.28 | 0.28 | 36 | 1011.0 |
| 20260506023217 | 68 | 281 | 7.0 | 7.8 | 0.00 | 0.28 | 0.28 | 36 | 1011.0 |
| 20260506022713 | 68 | 287 | 7.8 | 9.6 | 0.00 | 0.28 | 0.28 | 36 | 1010.8 |
| 20260506022211 | 68 | 328 | 7.8 | 11.3 | 0.00 | 0.28 | 0.28 | 36 | 1010.8 |
| 20260506021709 | 68 | 329 | 4.3 | 6.1 | 0.00 | 0.28 | 0.28 | 37 | 1010.6 |
| 20260506021206 | 68 | 296 | 7.0 | 7.8 | 0.00 | 0.28 | 0.28 | 36 | 1010.5 |
| 20260506020703 | 69 | 278 | 7.8 | 11.3 | 0.00 | 0.28 | 0.28 | 36 | 1010.4 |
| 20260506020201 | 69 | 290 | 8.7 | 11.3 | 0.00 | 0.28 | 0.28 | 36 | 1010.2 |
| 20260506015658 | 69 | 305 | 6.1 | 7.0 | 0.00 | 0.28 | 0.28 | 37 | 1010.3 |
| 20260506015155 | 69 | 291 | 7.0 | 8.7 | 0.00 | 0.28 | 0.28 | 36 | 1010.2 |
| 20260506014652 | 69 | 292 | 7.8 | 9.6 | 0.00 | 0.28 | 0.28 | 36 | 1010.2 |
| 20260506014148 | 70 | 295 | 10.4 | 12.2 | 0.00 | 0.28 | 0.28 | 35 | 1010.4 |
| 20260506013646 | 70 | 289 | 9.6 | 12.2 | 0.00 | 0.28 | 0.28 | 35 | 1010.1 |
| 20260506013143 | 71 | 294 | 7.8 | 8.7 | 0.00 | 0.28 | 0.28 | 33 | 1010.1 |
| 20260506012639 | 71 | 260 | 11.3 | 14.8 | 0.00 | 0.28 | 0.28 | 31 | 1010.1 |
| 20260506012136 | 71 | 171 | 9.6 | 12.2 | 0.00 | 0.28 | 0.28 | 31 | 1010.1 |
| 20260506011633 | 71 | 248 | 7.8 | 8.7 | 0.00 | 0.28 | 0.28 | 31 | 1009.9 |
| 20260506011129 | 71 | 254 | 9.6 | 12.2 | 0.00 | 0.28 | 0.28 | 31 | 1009.8 |
| 20260506010628 | 72 | 219 | 7.0 | 7.8 | 0.00 | 0.28 | 0.28 | 32 | 1009.8 |
| 20260506010125 | 72 | 315 | 9.6 | 12.2 | 0.00 | 0.28 | 0.28 | 31 | 1009.8 |
| 20260506005622 | 72 | 276 | 7.8 | 11.3 | 0.00 | 0.28 | 0.28 | 32 | 1009.8 |
| 20260506005118 | 72 | 251 | 7.8 | 11.3 | 0.00 | 0.28 | 0.28 | 32 | 1009.5 |
| 20260506004615 | 72 | 259 | 9.6 | 9.6 | 0.00 | 0.28 | 0.28 | 31 | 1009.5 |
| 20260506004112 | 72 | 262 | 10.4 | 12.2 | 0.00 | 0.28 | 0.28 | 31 | 1009.5 |
| 20260506003609 | 72 | 273 | 9.6 | 13.0 | 0.00 | 0.28 | 0.28 | 31 | 1009.4 |
| 20260506003105 | 72 | 279 | 9.6 | 13.9 | 0.00 | 0.28 | 0.28 | 31 | 1009.7 |
| 20260506002601 | 73 | 280 | 9.6 | 12.2 | 0.00 | 0.28 | 0.28 | 32 | 1009.5 |
| 20260506002057 | 73 | 247 | 8.7 | 11.3 | 0.00 | 0.28 | 0.28 | 31 | 1009.4 |
| 20260506001553 | 73 | 18 | 11.3 | 12.2 | 0.00 | 0.28 | 0.28 | 31 | 1009.3 |
| 20260506001050 | 73 | 295 | 7.0 | 7.8 | 0.00 | 0.28 | 0.28 | 32 | 1009.4 |
| 20260506000548 | 73 | 273 | 9.6 | 11.3 | 0.00 | 0.28 | 0.28 | 32 | 1009.4 |
| 20260506000045 | 73 | 186 | 6.1 | 7.0 | 0.00 | 0.28 | 0.28 | 33 | 1009.4 |
| 20260505235543 | 73 | 252 | 13.0 | 15.6 | 0.00 | 0.28 | 0.28 | 30 | 1009.3 |
| 20260505235040 | 73 | 245 | 7.8 | 9.6 | 0.00 | 0.28 | 0.28 | 30 | 1009.3 |
| 20260505234537 | 74 | 252 | 13.0 | 14.8 | 0.00 | 0.28 | 0.28 | 29 | 1009.2 |
| 20260505234033 | 74 | 277 | 7.0 | 7.8 | 0.00 | 0.28 | 0.28 | 32 | 1009.0 |
| 20260505233531 | 73 | 232 | 9.6 | 11.3 | 0.00 | 0.28 | 0.28 | 30 | 1009.1 |
| 20260505233028 | 73 | 247 | 7.8 | 8.7 | 0.00 | 0.28 | 0.28 | 31 | 1009.2 |
| 20260505232526 | 74 | 292 | 10.4 | 13.0 | 0.00 | 0.28 | 0.28 | 29 | 1009.1 |
| 20260505232023 | 73 | 234 | 5.2 | 6.1 | 0.00 | 0.28 | 0.28 | 32 | 1009.2 |
| 20260505231520 | 73 | 230 | 9.6 | 11.3 | 0.00 | 0.28 | 0.28 | 29 | 1009.2 |
| 20260505231019 | 73 | 282 | 10.4 | 12.2 | 0.00 | 0.28 | 0.28 | 29 | 1009.2 |
| 20260505230515 | 74 | 235 | 8.7 | 9.6 | 0.00 | 0.28 | 0.28 | 29 | 1009.2 |
| 20260505230012 | 75 | 202 | 8.7 | 12.2 | 0.00 | 0.28 | 0.28 | 31 | 1009.4 |
| 20260505225509 | 73 | 288 | 8.7 | 11.3 | 0.00 | 0.28 | 0.28 | 31 | 1009.4 |
| 20260505225005 | 73 | 236 | 13.0 | 15.6 | 0.00 | 0.28 | 0.28 | 29 | 1009.2 |
| 20260505224502 | 74 | 239 | 11.3 | 14.8 | 0.00 | 0.28 | 0.28 | 31 | 1009.4 |
| 20260505223959 | 73 | 256 | 8.7 | 11.3 | 0.00 | 0.28 | 0.28 | 31 | 1009.4 |
| 20260505223456 | 73 | 281 | 13.9 | 17.4 | 0.00 | 0.28 | 0.28 | 29 | 1009.3 |
| 20260505222952 | 73 | 272 | 8.7 | 9.6 | 0.00 | 0.28 | 0.28 | 32 | 1009.3 |
| 20260505222449 | 73 | 317 | 9.6 | 13.0 | 0.00 | 0.28 | 0.28 | 33 | 1009.6 |
| 20260505221944 | 73 | 229 | 9.6 | 11.3 | 0.00 | 0.28 | 0.28 | 31 | 1009.7 |
| 20260505221442 | 73 | 257 | 10.4 | 11.3 | 0.00 | 0.28 | 0.28 | 31 | 1009.7 |
| 20260505220939 | 74 | 249 | 9.6 | 11.3 | 0.00 | 0.28 | 0.28 | 33 | 1009.7 |
| 20260505220436 | 74 | 255 | 14.8 | 17.4 | 0.00 | 0.28 | 0.28 | 31 | 1009.7 |
| 20260505215934 | 74 | 283 | 11.3 | 13.9 | 0.00 | 0.28 | 0.28 | 32 | 1009.7 |
| 20260505215432 | 73 | 289 | 7.0 | 8.7 | 0.00 | 0.28 | 0.28 | 33 | 1009.8 |
| 20260505214929 | 73 | 260 | 8.7 | 12.2 | 0.00 | 0.28 | 0.28 | 33 | 1009.9 |
| 20260505214427 | 74 | 231 | 9.6 | 11.3 | 0.00 | 0.28 | 0.28 | 35 | 1009.8 |
| 20260505213924 | 73 | 275 | 11.3 | 14.8 | 0.00 | 0.28 | 0.28 | 33 | 1009.8 |
| 20260505213421 | 73 | 288 | 13.0 | 14.8 | 0.00 | 0.28 | 0.28 | 36 | 1009.7 |
| 20260505212917 | 73 | 275 | 14.8 | 18.2 | 0.00 | 0.28 | 0.28 | 36 | 1009.7 |
| 20260505212414 | 72 | 243 | 7.8 | 8.7 | 0.00 | 0.28 | 0.28 | 40 | 1009.7 |
| 20260505211911 | 72 | 275 | 9.6 | 13.0 | 0.00 | 0.28 | 0.28 | 38 | 1010.1 |
| 20260505211409 | 74 | 216 | 11.3 | 13.0 | 0.00 | 0.28 | 0.28 | 38 | 1009.7 |
| 20260505210904 | 73 | 256 | 9.6 | 11.3 | 0.00 | 0.28 | 0.28 | 39 | 1010.1 |
| 20260505210402 | 72 | 287 | 9.6 | 11.3 | 0.00 | 0.28 | 0.28 | 40 | 1010.4 |
| 20260505205859 | 73 | 255 | 12.2 | 15.6 | 0.00 | 0.28 | 0.28 | 40 | 1010.1 |
| 20260505205357 | 73 | 282 | 13.0 | 15.6 | 0.00 | 0.28 | 0.28 | 40 | 1010.2 |
| 20260505204853 | 73 | 280 | 11.3 | 13.9 | 0.00 | 0.28 | 0.28 | 40 | 1010.3 |
| 20260505204351 | 72 | 234 | 8.7 | 9.6 | 0.00 | 0.28 | 0.28 | 40 | 1010.2 |
| 20260505203848 | 74 | 238 | 10.4 | 13.0 | 0.00 | 0.28 | 0.28 | 39 | 1010.4 |
| 20260505203344 | 73 | 223 | 8.7 | 11.3 | 0.00 | 0.28 | 0.28 | 41 | 1010.2 |
| 20260505202841 | 73 | 239 | 10.4 | 12.2 | 0.00 | 0.28 | 0.28 | 39 | 1010.2 |
| 20260505202337 | 71 | 230 | 7.0 | 7.8 | 0.00 | 0.28 | 0.28 | 44 | 1010.6 |
| 20260505201834 | 73 | 232 | 8.7 | 11.3 | 0.00 | 0.28 | 0.28 | 43 | 1010.7 |
| 20260505201332 | 72 | 241 | 9.6 | 9.6 | 0.00 | 0.28 | 0.28 | 41 | 1010.5 |
| 20260505200830 | 72 | 266 | 7.0 | 8.7 | 0.00 | 0.28 | 0.28 | 43 | 1010.6 |
| 20260505200326 | 72 | 265 | 12.2 | 13.9 | 0.00 | 0.28 | 0.28 | 43 | 1010.6 |
| 20260505195822 | 71 | 308 | 3.5 | 4.3 | 0.00 | 0.28 | 0.28 | 50 | 1010.6 |
| 20260505195319 | 70 | 252 | 4.3 | 6.1 | 0.00 | 0.28 | 0.28 | 54 | 1010.8 |
| 20260505194816 | 71 | 240 | 4.3 | 5.2 | 0.00 | 0.28 | 0.28 | 53 | 1010.7 |
| 20260505194314 | 71 | 235 | 4.3 | 6.1 | 0.00 | 0.28 | 0.28 | 55 | 1010.9 |
| 20260505193808 | 70 | 277 | 2.6 | 2.6 | 0.00 | 0.28 | 0.28 | 53 | 1011.0 |
| 20260505193307 | 70 | 252 | 2.6 | 2.6 | 0.00 | 0.28 | 0.28 | 54 | 1010.8 |
| 20260505192805 | 70 | 280 | 6.1 | 7.0 | 0.00 | 0.28 | 0.28 | 52 | 1010.6 |
| 20260505192305 | 69 | 327 | 1.7 | 1.7 | 0.00 | 0.28 | 0.28 | 54 | 1010.9 |
| 20260505191800 | 69 | 206 | 1.7 | 1.7 | 0.00 | 0.28 | 0.28 | 54 | 1010.9 |
| 20260505191258 | 69 | 341 | 4.3 | 5.2 | 0.00 | 0.28 | 0.28 | 54 | 1011.0 |
| 20260505190754 | 69 | 320 | 3.5 | 4.3 | 0.00 | 0.28 | 0.28 | 54 | 1011.1 |
| 20260505190249 | 69 | 128 | 6.1 | 7.0 | 0.00 | 0.28 | 0.28 | 57 | 1011.5 |
| 20260505185746 | 69 | 121 | 1.7 | 1.7 | 0.00 | 0.28 | 0.28 | 57 | 1011.4 |
| 20260505185243 | 68 | 278 | 4.3 | 6.1 | 0.00 | 0.28 | 0.28 | 57 | 1011.6 |
| 20260505184738 | 68 | 195 | 4.3 | 5.2 | 0.00 | 0.28 | 0.28 | 59 | 1011.5 |
| 20260505184236 | 68 | 271 | 4.3 | 5.2 | 0.00 | 0.28 | 0.28 | 59 | 1011.8 |
| 20260505183733 | 68 | 270 | 4.3 | 5.2 | 0.00 | 0.28 | 0.28 | 60 | 1011.8 |
| 20260505183230 | 70 | 252 | 5.2 | 7.0 | 0.00 | 0.28 | 0.28 | 59 | 1011.6 |
| 20260505182726 | 69 | 279 | 4.3 | 5.2 | 0.00 | 0.28 | 0.28 | 60 | 1011.7 |
| 20260505182223 | 68 | 200 | 0.9 | 0.9 | 0.00 | 0.28 | 0.28 | 61 | 1012.0 |
| 20260505181720 | 67 | 251 | 1.7 | 1.7 | 0.00 | 0.28 | 0.28 | 62 | 1011.9 |
| 20260505181217 | 68 | 279 | 6.1 | 7.0 | 0.00 | 0.28 | 0.28 | 62 | 1012.0 |
| 20260505180714 | 67 | 4 | 4.3 | 5.2 | 0.00 | 0.28 | 0.28 | 63 | 1011.9 |
| 20260505180210 | 66 | 332 | 0.9 | 1.7 | 0.00 | 0.28 | 0.28 | 65 | 1012.1 |
| 20260505175706 | 66 | 336 | 2.6 | 4.3 | 0.00 | 0.28 | 0.28 | 63 | 1012.2 |
| 20260505175203 | 67 | 9 | 0.9 | 2.6 | 0.00 | 0.28 | 0.28 | 62 | 1012.1 |
| 20260505174700 | 67 | 227 | 2.6 | 2.6 | 0.00 | 0.28 | 0.28 | 61 | 1012.0 |
| 20260505174156 | 68 | 231 | 6.1 | 6.1 | 0.00 | 0.28 | 0.28 | 63 | 1012.2 |
| 20260505173653 | 67 | 168 | 0.9 | 0.9 | 0.00 | 0.28 | 0.28 | 65 | 1012.3 |
| 20260505173150 | 66 | 219 | 2.6 | 2.6 | 0.00 | 0.28 | 0.28 | 63 | 1012.2 |
| 20260505172647 | 67 | 195 | 2.6 | 2.6 | 0.00 | 0.28 | 0.28 | 63 | 1012.3 |
| 20260505172144 | 65 | 207 | 0.9 | 0.9 | 0.00 | 0.28 | 0.28 | 66 | 1012.5 |
| 20260505171643 | 65 | 189 | 0.9 | 0.9 | 0.00 | 0.28 | 0.28 | 67 | 1012.2 |
| 20260505171141 | 66 | 187 | 0.9 | 0.9 | 0.00 | 0.28 | 0.28 | 68 | 1012.2 |
| 20260505170638 | 66 | 188 | 0.0 | 0.9 | 0.00 | 0.28 | 0.28 | 66 | 1012.1 |
| 20260505170135 | 66 | 45 | 0.0 | 0.9 | 0.00 | 0.28 | 0.28 | 66 | 1012.3 |
| 20260505165634 | 65 | 81 | 0.9 | 0.9 | 0.00 | 0.28 | 0.28 | 66 | 1012.1 |
| 20260505165131 | 65 | 25 | 0.9 | 0.9 | 0.00 | 0.28 | 0.28 | 67 | 1012.2 |
| 20260505164626 | 64 | 309 | 0.0 | 0.9 | 0.00 | 0.28 | 0.28 | 71 | 1012.0 |
| 20260505164125 | 64 | 204 | 2.6 | 2.6 | 0.00 | 0.28 | 0.28 | 74 | 1012.2 |
| 20260505163623 | 63 | 294 | 0.0 | 0.9 | 0.00 | 0.28 | 0.28 | 74 | 1012.3 |
| 20260505163120 | 63 | 263 | 1.7 | 1.7 | 0.00 | 0.28 | 0.28 | 74 | 1012.1 |
| 20260505162617 | 63 | 353 | 1.7 | 1.7 | 0.00 | 0.28 | 0.28 | 75 | 1012.2 |
| 20260505162115 | 62 | 193 | 0.9 | 0.9 | 0.00 | 0.28 | 0.28 | 75 | 1012.3 |
| 20260505161612 | 63 | 274 | 2.6 | 2.6 | 0.00 | 0.28 | 0.28 | 75 | 1012.4 |
| 20260505161109 | 63 | 230 | 1.7 | 1.7 | 0.00 | 0.28 | 0.28 | 74 | 1012.7 |
| 20260505160607 | 62 | 261 | 1.7 | 1.7 | 0.00 | 0.28 | 0.28 | 74 | 1012.2 |
| 20260505160104 | 62 | 221 | 1.7 | 1.7 | 0.00 | 0.28 | 0.28 | 75 | 1012.1 |
| 20260505153043 | 61 | 190 | 0.9 | 0.9 | 0.00 | 0.28 | 0.28 | 83 | 1012.3 |
| 20260505152540 | 60 | 221 | 0.9 | 0.9 | 0.00 | 0.28 | 0.28 | 84 | 1012.2 |
| 20260505152036 | 60 | 204 | 0.0 | 0.9 | 0.00 | 0.28 | 0.28 | 86 | 1012.1 |
| 20260505151531 | 60 | 198 | 0.0 | 0.0 | 0.00 | 0.28 | 0.28 | 88 | 1012.1 |
| 20260505151029 | 59 | 205 | 0.0 | 0.0 | 0.00 | 0.28 | 0.28 | 88 | 1012.0 |
| 20260505150525 | 59 | 209 | 0.0 | 0.9 | 0.00 | 0.28 | 0.28 | 90 | 1012.2 |
| 20260505140450 | 58 | 106 | 3.5 | 5.2 | 0.00 | 0.28 | 0.28 | 95 | 1011.8 |
| 20260505124903 | 57 | 212 | 0.0 | 0.0 | 0.00 | 0.28 | 0.28 | 96 | 1011.1 |
| 20260505124401 | 57 | 205 | 0.0 | 0.0 | 0.00 | 0.28 | 0.28 | 96 | 1011.1 |
| 20260505123856 | 57 | 86 | 0.0 | 0.9 | 0.00 | 0.28 | 0.28 | 96 | 1011.1 |
| 20260505123353 | 57 | 285 | 1.7 | 1.7 | 0.00 | 0.28 | 0.28 | 96 | 1011.1 |
| 20260505122849 | 58 | 196 | 0.0 | 0.0 | 0.00 | 0.28 | 0.28 | 96 | 1010.6 |
| 20260505122347 | 57 | 163 | 0.0 | 0.0 | 0.00 | 0.28 | 0.28 | 95 | 1010.7 |
| 20260505121843 | 57 | 200 | 0.0 | 0.0 | 0.00 | 0.28 | 0.28 | 95 | 1010.9 |
| 20260505121340 | 57 | 214 | 0.0 | 0.0 | 0.00 | 0.28 | 0.28 | 95 | 1010.9 |
| 20260505120836 | 57 | 279 | 0.0 | 0.0 | 0.00 | 0.28 | 0.28 | 95 | 1010.6 |
| 20260505120332 | 57 | 199 | 0.0 | 0.0 | 0.00 | 0.28 | 0.28 | 95 | 1010.7 |
| 20260505115831 | 57 | 282 | 1.7 | 1.7 | 0.00 | 0.28 | 0.28 | 95 | 1010.8 |
| 20260505115329 | 57 | 274 | 0.0 | 0.0 | 0.00 | 0.28 | 0.28 | 95 | 1010.4 |
| 20260505114827 | 57 | 169 | 0.0 | 0.0 | 0.05 | 0.28 | 0.28 | 95 | 1010.6 |
| 20260505114323 | 57 | 355 | 0.9 | 0.9 | 0.05 | 0.28 | 0.28 | 95 | 1010.6 |
| 20260505113819 | 57 | 150 | 0.0 | 0.0 | 0.07 | 0.27 | 0.27 | 95 | 1010.6 |
| 20260505113316 | 57 | 169 | 0.0 | 0.9 | 0.07 | 0.27 | 0.27 | 95 | 1010.4 |
| 20260505112811 | 57 | 167 | 0.0 | 0.0 | 0.07 | 0.27 | 0.27 | 95 | 1010.9 |
| 20260505112309 | 57 | 189 | 0.0 | 0.0 | 0.00 | 0.26 | 0.26 | 95 | 1011.0 |
| 20260505111805 | 57 | 196 | 0.0 | 0.0 | 0.05 | 0.26 | 0.26 | 95 | 1011.1 |
| 20260505111300 | 57 | 288 | 0.0 | 0.9 | 0.12 | 0.26 | 0.26 | 95 | 1010.7 |
| 20260505110756 | 57 | 2 | 1.7 | 1.7 | 0.07 | 0.25 | 0.25 | 95 | 1010.8 |
| 20260505110254 | 57 | 53 | 0.0 | 0.0 | 0.05 | 0.24 | 0.24 | 95 | 1011.1 |
| 20260505101728 | 57 | 211 | 0.0 | 0.0 | 0.07 | 0.21 | 0.21 | 94 | 1011.7 |
| 20260505101224 | 57 | 191 | 0.0 | 0.0 | 0.07 | 0.21 | 0.21 | 94 | 1012.0 |
| 20260505100721 | 57 | 191 | 1.7 | 2.6 | 0.00 | 0.20 | 0.20 | 94 | 1011.8 |
| 20260505100218 | 57 | 219 | 0.9 | 0.9 | 0.00 | 0.20 | 0.20 | 94 | 1012.0 |
| 20260505095713 | 57 | 184 | 3.5 | 5.2 | 0.00 | 0.20 | 0.20 | 94 | 1011.9 |
| 20260505095211 | 57 | 209 | 0.0 | 0.9 | 0.00 | 0.20 | 0.20 | 94 | 1012.0 |
| 20260505094706 | 57 | 218 | 0.0 | 0.0 | 0.00 | 0.20 | 0.20 | 94 | 1012.2 |
| 20260505094203 | 57 | 120 | 2.6 | 5.2 | 0.05 | 0.20 | 0.20 | 94 | 1012.3 |
| 20260505093659 | 57 | 123 | 1.7 | 2.6 | 0.05 | 0.20 | 0.20 | 94 | 1012.1 |
| 20260505093157 | 57 | 158 | 2.6 | 2.6 | 0.12 | 0.20 | 0.20 | 94 | 1012.4 |
| 20260505092654 | 57 | 133 | 0.9 | 0.9 | 0.07 | 0.19 | 0.19 | 94 | 1012.5 |
| 20260505092152 | 57 | 83 | 1.7 | 1.7 | 0.05 | 0.18 | 0.18 | 94 | 1012.5 |
| 20260505091649 | 57 | 124 | 1.7 | 2.6 | 0.05 | 0.18 | 0.18 | 94 | 1012.9 |
| 20260505091147 | 57 | 126 | 0.9 | 1.7 | 0.07 | 0.17 | 0.17 | 94 | 1012.7 |
| 20260505090644 | 57 | 154 | 2.6 | 2.6 | 0.14 | 0.17 | 0.17 | 94 | 1012.8 |
| 20260505090143 | 57 | 183 | 0.9 | 1.7 | 0.07 | 0.16 | 0.16 | 94 | 1013.2 |
| 20260505085639 | 58 | 196 | 1.7 | 1.7 | 0.05 | 0.15 | 0.15 | 94 | 1013.2 |
| 20260505085138 | 58 | 161 | 1.7 | 1.7 | 0.05 | 0.15 | 0.15 | 94 | 1013.5 |
| 20260505084635 | 58 | 191 | 2.6 | 4.3 | 0.07 | 0.14 | 0.14 | 94 | 1013.4 |
| 20260505084133 | 58 | 133 | 2.6 | 2.6 | 0.07 | 0.14 | 0.14 | 94 | 1013.4 |
| 20260505083631 | 58 | 128 | 1.7 | 2.6 | 0.05 | 0.13 | 0.13 | 94 | 1013.8 |
| 20260505083127 | 58 | 163 | 3.5 | 4.3 | 0.05 | 0.13 | 0.13 | 94 | 1014.0 |
| 20260505082623 | 58 | 153 | 0.9 | 1.7 | 0.00 | 0.12 | 0.12 | 94 | 1014.2 |
| 20260505082120 | 58 | 174 | 1.7 | 1.7 | 0.07 | 0.12 | 0.12 | 94 | 1014.1 |
| 20260505081616 | 58 | 121 | 1.7 | 2.6 | 0.07 | 0.12 | 0.12 | 94 | 1014.4 |
| 20260505081114 | 58 | 169 | 2.6 | 2.6 | 0.12 | 0.11 | 0.11 | 94 | 1014.4 |
| 20260505080610 | 58 | 69 | 1.7 | 1.7 | 0.12 | 0.11 | 0.11 | 93 | 1014.5 |
| 20260505080107 | 58 | 142 | 1.7 | 1.7 | 0.12 | 0.10 | 0.10 | 93 | 1014.8 |
| 20260505075602 | 58 | 161 | 0.0 | 0.0 | 0.12 | 0.09 | 0.09 | 93 | 1014.9 |
| 20260505075059 | 58 | 177 | 0.0 | 0.0 | 0.19 | 0.08 | 0.08 | 93 | 1014.6 |
| 20260505074556 | 58 | 120 | 0.0 | 0.9 | 0.17 | 0.07 | 0.07 | 93 | 1014.7 |
| 20260505074053 | 58 | 167 | 0.9 | 0.9 | 0.12 | 0.05 | 0.05 | 93 | 1015.0 |
| 20260505073551 | 58 | 148 | 0.0 | 0.0 | 0.14 | 0.04 | 0.04 | 92 | 1015.0 |
| 20260505073049 | 58 | 154 | 0.9 | 0.9 | 0.07 | 0.03 | 0.03 | 92 | 1014.9 |
| 20260505072544 | 58 | 185 | 0.0 | 0.0 | 0.00 | 0.02 | 0.02 | 92 | 1014.8 |
| 20260505072041 | 57 | 106 | 0.9 | 1.7 | 0.05 | 0.02 | 0.02 | 92 | 1014.6 |
| 20260505071536 | 58 | 62 | 2.6 | 2.6 | 0.12 | 0.02 | 0.02 | 92 | 1014.5 |
| 20260505071035 | 58 | 128 | 0.9 | 1.7 | 0.07 | 0.01 | 0.01 | 92 | 1014.7 |
| 20260505070532 | 58 | 100 | 0.9 | 1.7 | 0.00 | 0.00 | 0.00 | 92 | 1014.7 |
| 20260505070027 | 58 | 114 | 0.9 | 0.9 | 0.05 | 0.23 | 0.23 | 91 | 1014.6 |
| 20260505065523 | 58 | 187 | 0.9 | 0.9 | 0.05 | 0.23 | 0.23 | 91 | 1014.5 |
| 20260505065020 | 58 | 79 | 0.0 | 0.0 | 0.07 | 0.22 | 0.22 | 91 | 1014.5 |
| 20260505064517 | 58 | 194 | 0.9 | 0.9 | 0.07 | 0.22 | 0.22 | 90 | 1014.4 |
| 20260505064016 | 58 | 187 | 0.0 | 0.0 | 0.05 | 0.21 | 0.21 | 90 | 1014.3 |
| 20260505063513 | 59 | 189 | 0.9 | 0.9 | 0.05 | 0.21 | 0.21 | 89 | 1014.1 |
| 20260505063008 | 58 | 141 | 0.0 | 0.9 | 0.07 | 0.20 | 0.20 | 88 | 1014.4 |
| 20260505062505 | 58 | 79 | 0.9 | 1.7 | 0.07 | 0.20 | 0.20 | 87 | 1014.2 |
| 20260505062002 | 59 | 45 | 2.6 | 2.6 | 0.05 | 0.19 | 0.19 | 87 | 1014.5 |
| 20260505061500 | 59 | 10 | 2.6 | 2.6 | 0.05 | 0.19 | 0.19 | 86 | 1014.7 |
| 20260505060957 | 59 | 43 | 1.7 | 1.7 | 0.07 | 0.18 | 0.18 | 86 | 1014.7 |
| 20260505060454 | 59 | 41 | 1.7 | 1.7 | 0.07 | 0.18 | 0.18 | 85 | 1014.4 |
| 20260505055951 | 60 | 70 | 0.9 | 0.9 | 0.00 | 0.17 | 0.17 | 85 | 1014.5 |